This is the latest recevied weather packets stored in our database for station/object YD1OCG-15. If no packets are shown the sender has not sent any weather packets the latest 10 day(s).
| Time | Temp. | Humidity | Pressure | Rain* | Wind** | Luminosity | Snow |
|---|---|---|---|---|---|---|---|
| 1788427587 | 30° C | 59% | 1010 hPa | - | - | - | - |
| 1788425787 | 30.56° C | 65% | 1010 hPa | - | - | - | - |
| 1788423204 | 30.56° C | 62% | 1010 hPa | - | - | - | - |
| 1788421403 | 31.11° C | 61% | 1010 hPa | - | - | - | - |
| 1788419604 | 31.11° C | 60% | 1011 hPa | - | - | - | - |
| 1788417804 | 31.11° C | 60% | 1011 hPa | - | - | - | - |
| 1788416003 | 30.56° C | 60% | 1012 hPa | - | - | - | - |
| 1788414204 | 30.56° C | 62% | 1012 hPa | - | - | - | - |
| 1788412403 | 30.56° C | 61% | 1013 hPa | - | - | - | - |
| 1788410603 | 30° C | 60% | 1013 hPa | - | - | - | - |
| 1788408803 | 29.44° C | 60% | 1014 hPa | - | - | - | - |
| 1788407544 | 30° C | 80% | 1014 hPa | - | - | - | - |
| 1788405743 | 28.33° C | 62% | 1015 hPa | - | - | - | - |
| 1788403944 | 28.33° C | 65% | 1015 hPa | - | - | - | - |
| 1788402144 | 27.78° C | 68% | 1015 hPa | - | - | - | - |
| 1788399564 | 27.22° C | 68% | 1016 hPa | - | - | - | - |
| 1788397764 | 26.11° C | 53% | 1016 hPa | - | - | - | - |
| 1788395963 | 26.11° C | 52% | 1016 hPa | - | - | - | - |
| 1788394170 | 26.11° C | 71% | 1016 hPa | - | - | - | - |
| 1788392364 | 26.11° C | 77% | 1016 hPa | - | - | - | - |
| 1788390563 | 25.56° C | 75% | 1014 hPa | - | - | - | - |
| 1788387743 | 26.11° C | 81% | 1014 hPa | - | - | - | - |
| 1788385943 | 26.67° C | 81% | 1014 hPa | - | - | - | - |
| 1788384144 | 26.67° C | 81% | 1013 hPa | - | - | - | - |
| 1788382344 | 27.22° C | 81% | 1014 hPa | - | - | - | - |
* Rain since midnight (hover to see other rain measurements)
** Current wind speed in m/s (hover to see current wind gust speed)